Time,TemperatureF,DewpointF,PressureIn,WindDirection,WindDirectionDegrees,WindSpeedMPH,WindSpeedGustMPH,Humidity,HourlyPrecipIn,Conditions,Clouds,dailyrainin,SoftwareType,DateUTC
2013-02-14 00:00:00,20.0,17.0,-100.00,West,273,0.0,0.0,88,-99.99,,,-99.99,,2013-02-14 07:00:00,
2013-02-14 00:32:00,20.0,17.0,-100.00,West,273,0.0,0.0,88,-99.99,,,-99.99,,2013-02-14 07:32:00,
2013-02-14 00:42:00,20.0,17.0,-100.00,West,273,0.0,0.0,88,-99.99,,,-99.99,,2013-02-14 07:42:00,
2013-02-14 00:52:00,20.0,17.0,-100.00,West,273,0.0,0.0,88,-99.99,,,-99.99,,2013-02-14 07:52:00,
2013-02-14 01:00:00,20.0,16.0,-100.00,WNW,287,0.0,0.0,86,-99.99,,,-99.99,,2013-02-14 08:00:00,
2013-02-14 01:32:00,20.0,16.0,-100.00,WNW,287,0.0,0.0,86,-99.99,,,-99.99,,2013-02-14 08:32:00,
2013-02-14 01:43:00,20.0,16.0,-100.00,WNW,287,0.0,0.0,86,-99.99,,,-99.99,,2013-02-14 08:43:00,
2013-02-14 01:52:00,20.0,16.0,-100.00,WNW,287,0.0,0.0,86,-99.99,,,-99.99,,2013-02-14 08:52:00,
2013-02-14 03:00:00,19.0,16.0,-100.00,WNW,287,0.0,0.0,86,-99.99,,,-99.99,,2013-02-14 10:00:00,
2013-02-14 03:32:00,19.0,16.0,-100.00,WNW,287,0.0,0.0,86,-99.99,,,-99.99,,2013-02-14 10:32:00,
2013-02-14 03:42:00,19.0,16.0,-100.00,WNW,287,0.0,0.0,86,-99.99,,,-99.99,,2013-02-14 10:42:00,
2013-02-14 03:52:00,19.0,16.0,-100.00,WNW,287,0.0,0.0,86,-99.99,,,-99.99,,2013-02-14 10:52:00,
2013-02-14 04:00:00,19.0,15.0,-100.00,West,276,0.0,0.0,86,-99.99,,,-99.99,,2013-02-14 11:00:00,
2013-02-14 04:32:00,19.0,15.0,-100.00,West,276,0.0,0.0,86,-99.99,,,-99.99,,2013-02-14 11:32:00,
2013-02-14 04:42:00,19.0,15.0,-100.00,West,276,0.0,0.0,86,-99.99,,,-99.99,,2013-02-14 11:42:00,
2013-02-14 04:52:00,19.0,15.0,-100.00,West,276,0.0,0.0,86,-99.99,,,-99.99,,2013-02-14 11:52:00,
2013-02-14 05:00:00,18.0,14.0,-100.00,WNW,298,0.0,0.0,84,-99.99,,,-99.99,,2013-02-14 12:00:00,
2013-02-14 05:32:00,18.0,14.0,-100.00,WNW,298,0.0,0.0,84,-99.99,,,-99.99,,2013-02-14 12:32:00,
2013-02-14 05:42:00,18.0,14.0,-100.00,WNW,298,0.0,0.0,84,-99.99,,,-99.99,,2013-02-14 12:42:00,
2013-02-14 05:53:00,18.0,14.0,-100.00,WNW,298,0.0,0.0,84,-99.99,,,-99.99,,2013-02-14 12:53:00,
2013-02-14 07:00:00,17.0,10.0,-100.00,NW,322,4.0,8.0,71,-99.99,,,-99.99,,2013-02-14 14:00:00,
2013-02-14 07:32:00,17.0,10.0,-100.00,NW,322,4.0,8.0,71,-99.99,,,-99.99,,2013-02-14 14:32:00,
2013-02-14 07:42:00,17.0,10.0,-100.00,NW,322,4.0,8.0,71,-99.99,,,-99.99,,2013-02-14 14:42:00,
2013-02-14 07:52:00,17.0,10.0,-100.00,NW,322,4.0,8.0,71,-99.99,,,-99.99,,2013-02-14 14:52:00,
2013-02-14 08:00:00,18.0,10.0,-100.00,NNW,329,2.0,5.0,69,-99.99,,,-99.99,,2013-02-14 15:00:00,
2013-02-14 08:32:00,18.0,10.0,-100.00,NNW,329,2.0,5.0,69,-99.99,,,-99.99,,2013-02-14 15:32:00,
2013-02-14 08:42:00,18.0,10.0,-100.00,NNW,329,2.0,5.0,69,-99.99,,,-99.99,,2013-02-14 15:42:00,
2013-02-14 08:52:00,18.0,10.0,-100.00,NNW,329,2.0,5.0,69,-99.99,,,-99.99,,2013-02-14 15:52:00,
2013-02-14 09:00:00,19.0,12.0,-100.00,WNW,299,0.0,0.0,72,-99.99,,,-99.99,,2013-02-14 16:00:00,
2013-02-14 09:32:00,19.0,12.0,-100.00,WNW,299,0.0,0.0,72,-99.99,,,-99.99,,2013-02-14 16:32:00,
2013-02-14 09:42:00,19.0,12.0,-100.00,WNW,299,0.0,0.0,72,-99.99,,,-99.99,,2013-02-14 16:42:00,
2013-02-14 09:52:00,19.0,12.0,-100.00,WNW,299,0.0,0.0,72,-99.99,,,-99.99,,2013-02-14 16:52:00,
2013-02-14 10:00:00,23.0,13.0,-100.00,WNW,285,0.0,0.0,66,-99.99,,,-99.99,,2013-02-14 17:00:00,
2013-02-14 10:32:00,23.0,13.0,-100.00,WNW,285,0.0,0.0,66,-99.99,,,-99.99,,2013-02-14 17:32:00,
2013-02-14 10:42:00,23.0,13.0,-100.00,WNW,285,0.0,0.0,66,-99.99,,,-99.99,,2013-02-14 17:42:00,
2013-02-14 10:52:00,23.0,13.0,-100.00,WNW,285,0.0,0.0,66,-99.99,,,-99.99,,2013-02-14 17:52:00,
2013-02-14 11:00:00,28.0,16.0,-100.00,WSW,254,0.0,0.0,61,-99.99,,,-99.99,,2013-02-14 18:00:00,
2013-02-14 11:32:00,28.0,16.0,-100.00,WSW,254,0.0,0.0,61,-99.99,,,-99.99,,2013-02-14 18:32:00,
2013-02-14 11:42:00,28.0,16.0,-100.00,WSW,254,0.0,0.0,61,-99.99,,,-99.99,,2013-02-14 18:42:00,
2013-02-14 11:52:00,28.0,16.0,-100.00,WSW,254,0.0,0.0,61,-99.99,,,-99.99,,2013-02-14 18:52:00,
2013-02-14 13:00:00,27.0,17.0,-100.00,WSW,248,0.0,0.0,63,-99.99,,,-99.99,,2013-02-14 20:00:00,
2013-02-14 13:32:00,27.0,17.0,-100.00,WSW,248,0.0,0.0,63,-99.99,,,-99.99,,2013-02-14 20:32:00,
2013-02-14 13:42:00,27.0,17.0,-100.00,WSW,248,0.0,0.0,63,-99.99,,,-99.99,,2013-02-14 20:42:00,
2013-02-14 13:52:00,27.0,17.0,-100.00,WSW,248,0.0,0.0,63,-99.99,,,-99.99,,2013-02-14 20:52:00,
2013-02-14 14:00:00,28.0,17.0,-100.00,WSW,256,0.0,0.0,63,-99.99,,,-99.99,,2013-02-14 21:00:00,
2013-02-14 14:32:00,28.0,17.0,-100.00,WSW,256,0.0,0.0,63,-99.99,,,-99.99,,2013-02-14 21:32:00,
2013-02-14 14:42:00,28.0,17.0,-100.00,WSW,256,0.0,0.0,63,-99.99,,,-99.99,,2013-02-14 21:42:00,
2013-02-14 14:52:00,28.0,17.0,-100.00,WSW,256,0.0,0.0,63,-99.99,,,-99.99,,2013-02-14 21:52:00,
2013-02-14 15:00:00,25.0,15.0,-100.00,WSW,257,0.0,0.0,64,-99.99,,,-99.99,,2013-02-14 22:00:00,
2013-02-14 15:32:00,25.0,15.0,-100.00,WSW,257,0.0,0.0,64,-99.99,,,-99.99,,2013-02-14 22:32:00,
2013-02-14 15:42:00,25.0,15.0,-100.00,WSW,257,0.0,0.0,64,-99.99,,,-99.99,,2013-02-14 22:42:00,
2013-02-14 15:52:00,25.0,15.0,-100.00,WSW,257,0.0,0.0,64,-99.99,,,-99.99,,2013-02-14 22:52:00,
2013-02-14 16:00:00,25.0,17.0,-100.00,WSW,239,0.0,0.0,70,-99.99,,,-99.99,,2013-02-14 23:00:00,
2013-02-14 16:32:00,25.0,17.0,-100.00,WSW,239,0.0,0.0,70,-99.99,,,-99.99,,2013-02-14 23:32:00,
2013-02-14 16:42:00,25.0,17.0,-100.00,WSW,239,0.0,0.0,70,-99.99,,,-99.99,,2013-02-14 23:42:00,
2013-02-14 16:52:00,25.0,17.0,-100.00,WSW,239,0.0,0.0,70,-99.99,,,-99.99,,2013-02-14 23:52:00,
2013-02-14 17:00:00,24.0,18.0,-100.00,WSW,242,0.0,0.0,76,-99.99,,,-99.99,,2013-02-15 00:00:00,
2013-02-14 17:32:00,24.0,18.0,-100.00,WSW,242,0.0,0.0,76,-99.99,,,-99.99,,2013-02-15 00:32:00,
2013-02-14 17:42:00,24.0,18.0,-100.00,WSW,242,0.0,0.0,76,-99.99,,,-99.99,,2013-02-15 00:42:00,
2013-02-14 17:52:00,24.0,18.0,-100.00,WSW,242,0.0,0.0,76,-99.99,,,-99.99,,2013-02-15 00:52:00,
2013-02-14 19:00:00,22.0,17.0,-100.00,West,279,0.0,0.0,81,-99.99,,,-99.99,,2013-02-15 02:00:00,
2013-02-14 19:32:00,22.0,17.0,-100.00,West,279,0.0,0.0,81,-99.99,,,-99.99,,2013-02-15 02:32:00,
2013-02-14 19:42:00,22.0,17.0,-100.00,West,279,0.0,0.0,81,-99.99,,,-99.99,,2013-02-15 02:42:00,
2013-02-14 19:52:00,22.0,17.0,-100.00,West,279,0.0,0.0,81,-99.99,,,-99.99,,2013-02-15 02:52:00,
2013-02-14 20:00:00,22.0,18.0,-100.00,WNW,295,0.0,0.0,82,-99.99,,,-99.99,,2013-02-15 03:00:00,
2013-02-14 20:32:00,22.0,18.0,-100.00,WNW,295,0.0,0.0,82,-99.99,,,-99.99,,2013-02-15 03:32:00,
2013-02-14 20:42:00,22.0,18.0,-100.00,WNW,295,0.0,0.0,82,-99.99,,,-99.99,,2013-02-15 03:42:00,
2013-02-14 20:52:00,22.0,18.0,-100.00,WNW,295,0.0,0.0,82,-99.99,,,-99.99,,2013-02-15 03:52:00,
2013-02-14 21:00:00,22.0,19.0,-100.00,NNW,330,0.0,0.0,88,-99.99,,,-99.99,,2013-02-15 04:00:00,
2013-02-14 21:32:00,22.0,19.0,-100.00,NNW,330,0.0,0.0,88,-99.99,,,-99.99,,2013-02-15 04:32:00,
2013-02-14 21:42:00,22.0,19.0,-100.00,NNW,330,0.0,0.0,88,-99.99,,,-99.99,,2013-02-15 04:42:00,
2013-02-14 21:52:00,22.0,19.0,-100.00,NNW,330,0.0,0.0,88,-99.99,,,-99.99,,2013-02-15 04:52:00,
2013-02-14 22:00:00,22.0,19.0,-100.00,WNW,303,0.0,0.0,89,-99.99,,,-99.99,,2013-02-15 05:00:00,
2013-02-14 22:32:00,22.0,19.0,-100.00,WNW,303,0.0,0.0,89,-99.99,,,-99.99,,2013-02-15 05:32:00,
2013-02-14 22:42:00,22.0,19.0,-100.00,WNW,303,0.0,0.0,89,-99.99,,,-99.99,,2013-02-15 05:42:00,
2013-02-14 22:52:00,22.0,19.0,-100.00,WNW,303,0.0,0.0,89,-99.99,,,-99.99,,2013-02-15 05:52:00,
2013-02-14 23:00:00,22.0,20.0,-100.00,WNW,302,0.0,0.0,91,-99.99,,,-99.99,,2013-02-15 06:00:00,
2013-02-14 23:32:00,22.0,20.0,-100.00,WNW,302,0.0,0.0,91,-99.99,,,-99.99,,2013-02-15 06:32:00,
2013-02-14 23:42:00,22.0,20.0,-100.00,WNW,302,0.0,0.0,91,-99.99,,,-99.99,,2013-02-15 06:42:00,
2013-02-14 23:52:00,22.0,20.0,-100.00,WNW,302,0.0,0.0,91,-99.99,,,-99.99,,2013-02-15 06:52:00,